CW0009 Weather Reports


Display with metric or nautical units.
time (UTC)temp
F
wind
direction
speed
MPH
gust
MPH
rain 1hr
in
rain 24hr
in
rain mn
in
humidity
%
barometer
mb
20190618044013 60 100 0.0 0.0 0.00 0.00 0.00 63 1015.0
20190618043034 60 100 0.0 0.0 0.00 0.00 0.00 63 1015.0
20190618042013 60 100 0.0 0.0 0.00 0.00 0.00 63 1015.0
20190618041013 60 100 0.0 0.0 0.00 0.00 0.00 63 1015.0
20190618040012 60 100 0.0 0.0 0.00 0.00 0.00 63 1015.0
20190618035012 60 100 0.0 0.0 0.00 0.00 0.00 63 1015.0
20190618034013 60 100 0.0 0.0 0.00 0.00 0.00 63 1015.0
20190618033013 60 100 0.0 0.0 0.00 0.00 0.00 63 1015.0
20190618032013 61 100 0.0 0.0 0.00 0.00 0.00 63 1015.0
20190618030011 61 100 0.0 0.0 0.00 0.00 0.00 63 1015.0
20190618025013 61 100 0.0 0.0 0.00 0.00 0.00 61 1015.0
20190618024013 61 100 0.0 0.0 0.00 0.00 0.00 61 1015.0
20190618023013 61 100 0.0 0.0 0.00 0.00 0.00 61 1015.0
20190618022034 61 100 0.0 0.0 0.00 0.00 0.00 61 1015.0
20190618020011 62 100 0.0 0.0 0.00 0.00 0.00 60 1015.0
20190618014034 62 100 0.0 0.0 0.00 0.00 0.00 60 1015.0
20190618013013 62 100 0.0 0.0 0.00 0.00 0.00 60 1015.0
20190618012013 62 100 0.0 0.0 0.00 0.00 0.00 59 1015.0
20190618011013 62 100 0.0 0.0 0.00 0.00 0.00 59 1015.0
20190618010033 62 100 0.0 0.0 0.00 0.00 0.00 59 1015.0
20190618005034 62 100 0.0 0.0 0.00 0.00 0.00 59 1016.0
20190618004013 62 100 0.0 0.0 0.00 0.00 0.00 59 1016.0
20190618003015 62 100 0.0 0.0 0.00 0.00 0.00 59 1016.0
20190618002013 62 100 0.0 0.0 0.00 0.00 0.00 59 1016.0
20190618001034 62 100 0.0 0.0 0.00 0.00 0.00 59 1016.0
20190618000011 63 100 0.0 0.0 0.00 0.00 0.00 58 1016.0
20190617235013 63 100 0.0 0.0 0.00 0.00 0.00 58 1016.0
20190617234034 63 100 0.0 0.0 0.00 0.00 0.00 58 1016.0
20190617233013 63 100 0.0 0.0 0.00 0.00 0.00 58 1016.0
20190617232014 63 100 0.0 0.0 0.00 0.00 0.00 58 1016.0
20190617231013 64 100 0.0 0.0 0.00 0.00 0.00 58 1016.0
20190617230012 64 100 0.0 0.0 0.00 0.00 0.00 58 1016.0
20190617225013 64 100 0.0 0.0 0.00 0.00 0.00 58 1016.0
20190617224013 64 100 0.0 0.0 0.00 0.00 0.00 58 1016.0
20190617223013 64 100 0.0 0.0 0.00 0.00 0.00 58 1016.0
20190617222013 65 100 0.0 0.0 0.00 0.00 0.00 58 1016.0
20190617221013 65 100 0.0 0.0 0.00 0.00 0.00 58 1016.0
20190617220012 65 100 0.0 0.0 0.00 0.00 0.00 58 1016.0
20190617215012 65 100 0.0 0.0 0.00 0.00 0.00 58 1016.0
20190617214013 66 100 0.0 0.0 0.00 0.00 0.00 58 1016.0
20190617213014 66 100 0.0 0.0 0.00 0.00 0.00 58 1016.0
20190617212013 66 100 0.0 0.0 0.00 0.00 0.00 58 1016.0
20190617210011 67 100 0.0 0.0 0.00 0.00 0.00 58 1016.0
20190617204013 68 100 0.0 0.0 0.00 0.00 0.00 58 1016.0
20190617203015 68 100 0.0 0.0 0.00 0.00 0.00 58 1016.0
20190617201013 69 100 0.0 0.0 0.00 0.00 0.00 58 1016.0
20190617200012 70 100 0.0 0.0 0.00 0.00 0.00 58 1016.0
20190617195013 70 100 0.0 0.0 0.00 0.00 0.00 58 1016.0
20190617194012 71 100 0.0 0.0 0.00 0.00 0.00 58 1016.0
20190617193013 71 100 0.0 0.0 0.00 0.00 0.00 58 1016.0
20190617192012 72 100 0.0 0.0 0.00 0.00 0.00 58 1016.0
20190617191013 72 100 0.0 0.0 0.00 0.00 0.00 58 1016.0
20190617185013 73 100 2.0 3.0 0.00 0.00 0.00 58 1016.0
20190617184012 73 100 1.0 3.0 0.00 0.00 0.00 58 1016.0
20190617183013 74 100 0.0 3.0 0.00 0.00 0.00 58 1016.0
20190617182013 74 100 0.0 0.0 0.00 0.00 0.00 58 1016.0
20190617181034 74 100 0.0 0.0 0.00 0.00 0.00 58 1016.0
20190617180011 75 100 0.0 0.0 0.00 0.00 0.00 58 1016.0
20190617175035 75 100 0.0 3.0 0.00 0.00 0.00 58 1016.0
20190617173013 76 100 1.0 0.0 0.00 0.00 0.00 58 1016.0
20190617172013 76 100 2.0 3.0 0.00 0.00 0.00 58 1017.0
20190617171014 76 100 2.0 5.0 0.00 0.00 0.00 58 1016.0
20190617170033 76 100 2.0 3.0 0.00 0.00 0.00 58 1017.0
20190617165013 77 150 2.0 5.0 0.00 0.00 0.00 58 1017.0
20190617164013 77 140 2.0 1.0 0.00 0.00 0.00 58 1017.0
20190617163013 78 155 3.0 8.0 0.00 0.00 0.00 58 1017.0
20190617162013 78 265 3.0 6.0 0.00 0.00 0.00 58 1017.0
20190617161012 78 200 5.0 6.0 0.00 0.00 0.00 58 1017.0
20190617160032 78 185 6.0 8.0 0.00 0.00 0.00 58 1017.0
20190617155035 78 180 6.0 8.0 0.00 0.00 0.00 58 1017.0
20190617154034 78 185 5.0 6.0 0.00 0.00 0.00 58 1017.0
20190617153014 78 180 5.0 9.0 0.00 0.00 0.00 58 1017.0
20190617152012 78 175 5.0 9.0 0.00 0.00 0.00 58 1017.0
20190617151013 78 180 5.0 5.0 0.00 0.00 0.00 58 1017.0
20190617150033 78 195 3.0 6.0 0.00 0.00 0.00 58 1017.0
20190617145013 78 160 3.0 5.0 0.00 0.00 0.00 58 1017.0
20190617144013 78 140 2.0 8.0 0.00 0.00 0.00 58 1017.0
20190617143014 79 145 0.0 0.0 0.00 0.00 0.00 58 1017.0
20190617142013 79 175 2.0 0.0 0.00 0.00 0.00 58 1017.0
20190617141012 79 140 6.0 8.0 0.00 0.00 0.00 58 1017.0
20190617140012 79 185 5.0 8.0 0.00 0.00 0.00 58 1017.0
20190617135012 79 195 3.0 7.0 0.00 0.00 0.00 58 1017.0
20190617131012 80 140 2.0 6.0 0.00 0.00 0.00 58 1018.0
20190617130010 80 140 0.0 6.0 0.00 0.00 0.00 58 1018.0
20190617125033 80 145 2.0 0.0 0.00 0.00 0.00 58 1018.0
20190617124013 80 145 3.0 8.0 0.00 0.00 0.00 58 1018.0
20190617123012 81 130 3.0 5.0 0.00 0.00 0.00 58 1018.0
20190617122011 81 145 3.0 8.0 0.00 0.00 0.00 58 1018.0
20190617121015 82 145 6.0 6.0 0.00 0.00 0.00 58 1018.0
20190617120014 82 175 6.0 9.0 0.00 0.00 0.00 58 1018.0
20190617114036 82 185 7.0 7.0 0.00 0.00 0.00 58 1018.0
20190617113015 82 145 7.0 9.0 0.00 0.00 0.00 58 1019.0
20190617112036 82 110 7.0 9.0 0.00 0.00 0.00 58 1019.0
20190617110013 82 185 5.0 7.0 0.00 0.00 0.00 58 1019.0
20190617105015 83 155 6.0 8.0 0.00 0.00 0.00 58 1019.0
20190617104015 83 160 7.0 8.0 0.00 0.00 0.00 58 1019.0
20190617103016 82 155 7.0 10.0 0.00 0.00 0.00 58 1019.0
20190617102035 82 190 7.0 8.0 0.00 0.00 0.00 58 1019.0
20190617101015 82 155 7.0 8.0 0.00 0.00 0.00 58 1019.0
20190617100013 82 155 8.0 9.0 0.00 0.00 0.00 58 1019.0
20190617095016 81 180 8.0 9.0 0.00 0.00 0.00 58 1019.0
20190617093036 81 140 6.0 7.0 0.00 0.00 0.00 58 1019.0
20190617092015 80 190 6.0 8.0 0.00 0.00 0.00 58 1019.0
20190617091015 80 165 7.0 8.0 0.00 0.00 0.00 58 1020.0
20190617090013 80 180 6.0 8.0 0.00 0.00 0.00 58 1020.0
20190617085015 80 165 5.0 7.0 0.00 0.00 0.00 58 1020.0
20190617084014 79 135 6.0 7.0 0.00 0.00 0.00 58 1020.0
20190617083015 78 130 5.0 7.0 0.00 0.00 0.00 58 1020.0
20190617082015 78 170 3.0 6.0 0.00 0.00 0.00 58 1020.0
20190617081017 77 170 3.0 7.0 0.00 0.00 0.00 58 1020.0
20190617080013 76 190 2.0 5.0 0.00 0.00 0.00 58 1020.0
20190617075015 76 110 2.0 3.0 0.00 0.00 0.00 59 1020.0
20190617074015 75 110 2.0 5.0 0.00 0.00 0.00 62 1020.0
20190617073015 73 140 1.0 5.0 0.00 0.00 0.00 64 1020.0
20190617072036 72 150 1.0 5.0 0.00 0.00 0.00 65 1020.0
20190617071015 71 125 1.0 3.0 0.00 0.00 0.00 67 1020.0
20190617070014 70 120 0.0 0.0 0.00 0.00 0.00 69 1020.0
20190617065015 68 120 1.0 0.0 0.00 0.00 0.00 70 1020.0
20190617063036 64 145 0.0 1.0 0.00 0.00 0.00 72 1020.0
20190617062016 62 145 0.0 1.0 0.00 0.00 0.00 73 1020.0
20190617061036 60 145 0.0 0.0 0.00 0.00 0.00 73 1020.0
20190617060034 58 145 0.0 0.0 0.00 0.00 0.00 74 1020.0
20190617054015 56 145 0.0 0.0 0.00 0.00 0.00 73 1020.0
20190617053015 55 150 0.0 0.0 0.00 0.00 0.00 72 1020.0
20190617052014 55 150 0.0 0.0 0.00 0.00 0.00 72 1020.0
20190617051015 54 150 0.0 0.0 0.00 0.00 0.00 72 1020.0
20190617050013 54 150 0.0 0.0 0.00 0.00 0.00 72 1020.0
20190617045015 54 150 0.0 0.0 0.00 0.00 0.00 72 1020.0